Regional Weather Roundup
Issued by NWS

Home | Current Version | Previous Version | Graphics & Text | Print | Product List | Glossary On
Versions: 1 2 3 4 5 6 7 8 9 10 11 12 13 14 15 16 17 18 19 20 21 22 23 24 25 26 27 28 29 30 31 32 33 34 35 36 37 38 39 40 41 42 43 44 45 46 47 48 49 50
000
ASUS43 KBIS 270820
RWRND

NORTH DAKOTA REGIONAL WEATHER ROUNDUP
NATIONAL WEATHER SERVICE BISMARCK ND
300 AM CDT WED AUG 27 2014

NOTE: "FAIR" INDICATES FEW OR NO CLOUDS BELOW 12,000 FEET WITH NO
SIGNIFICANT WEATHER AND/OR OBSTRUCTIONS TO VISIBILITY.


NDZ001>003-009>011-017-270900-
NORTHWEST NORTH DAKOTA

CITY           SKY/WX    TMP DP  RH WIND       PRES   REMARKS
WILLISTON      CLEAR     55  51  86 S3        30.12F
MINOT          CLEAR     55  51  86 S8        30.14S
MINOT AFB      CLEAR     51  51  99 SW7       30.13F
$$

NDZ018>021-031>035-040>046-270900-
SOUTHWEST NORTH DAKOTA

CITY           SKY/WX    TMP DP  RH WIND       PRES   REMARKS
BISMARCK       CLEAR     53  52  96 NE3       30.18F
DICKINSON      CLEAR     50  49  96 S8        30.15S
GARRISON         N/A     52  51  97 SW3       30.16F
HETTINGER ARPT FOG       48  46  93 CALM      30.18S VSB 1/4
$$

NDZ004>008-012>016-024-026-027-054-270900-
NORTHEAST NORTH DAKOTA

CITY           SKY/WX    TMP DP  RH WIND       PRES   REMARKS
GRAND FORKS    CLEAR     51  50  96 SW3       30.16S
GRND FRKS AFB  CLEAR     51  51 100 W6        30.16F
DEVILS LAKE    CLEAR     57  50  77 SW7       30.15F
$$

NDZ022-023-025-028>030-036>039-047>053-270900-
SOUTHEAST NORTH DAKOTA

CITY           SKY/WX    TMP DP  RH WIND       PRES   REMARKS
FARGO          FOG       53  52  96 CALM      30.19S VSB 1
JAMESTOWN      FOG       49  48  97 CALM      30.19R VSB 1/2
$$




USA.gov is the U.S. government's official web portal to all federal, state and local government web resources and services.